Skip Page Navigation
NASA JPL Caltech
NASA Logo - Jet Propulsion Laboratory + View the NASA Portal
+ Center for Near-Earth Object Studies
JPL Home Earth Solar System Stars & Galaxies Technology
JPL Solar System Dynamics
BODIES ORBITS EPHEMERIDES TOOLS PHYSICAL DATA DISCOVERY FAQ SITE MAP
JPL Small-Body Database Browser
Search: [ help ]  
437302 (2013 CK13)
Classification: Jupiter Trojan          SPK-ID: 2437302
Ephemeris | Orbit Diagram | Orbital Elements | Mission Design | Physical Parameters | Discovery Circumstances ]

[ show orbit diagram ]
Orbital Elements at Epoch 2459000.5 (2020-May-31.0) TDB
Reference: JPL 12 (heliocentric ecliptic J2000)
 Element Value Uncertainty (1-sigma)   Units 
e .1389512586090592 1.3096e-06  
a 5.206722816841163 7.6815e-06 au
q 4.483242128212577 9.5193e-07 au
i 2.415760357240482 1.3559e-05 deg
node 58.79818272590671 0.00035927 deg
peri 73.30271303605171 0.00039026 deg
M 228.5021944397852 0.00060678 deg
tp 2460585.616252850398
(2024-Oct-02.11625285)
0.010799 TDB
period 4339.55417426976
11.88
0.0096033
2.629e-05
d
yr
n .0829578305841934 1.8358e-07 deg/d
Q 5.930203505469749 8.7489e-06 au
  Orbit Determination Parameters
   # obs. used (total)      47  
   data-arc span      1612 days (4.41 yr)  
   first obs. used      2010-11-25  
   last obs. used      2015-04-25  
   planetary ephem.      DE431  
   SB-pert. ephem.      SB431-N16  
   condition code      2  
   norm. resid. RMS      .68159  
   source      ORB  
   producer      Otto Matic  
   solution date      2017-Apr-09 13:18:30  

Additional Information
 Earth MOID = 3.49882 au 
 Jupiter MOID = .0562562 au 
 T_jup = 2.979 
[ show covariance matrix ]

Ephemeris | Orbit Diagram | Orbital Elements | Mission Design | Physical Parameters | Discovery Circumstances ]

Physical Parameter Table
Parameter Symbol Value Units Sigma Reference Notes
absolute magnitude H 14.5   n/a MPO294899  

437302 (2013 CK13)          Discovered 2010-Nov-25 by Mt. Lemmon Survey at Mount Lemmon
Reference: Last Updated: 2015-06-04
Ephemeris | Orbit Diagram | Orbital Elements | Mission Design | Physical Parameters | Discovery Circumstances ]
ABOUT SSD CREDITS/AWARDS PRIVACY/COPYRIGHT GLOSSARY LINKS
FirstGov 2020-Sep-21 03:37 UT
(server date/time)  
NASA Home Page
Site Manager:   Ryan S. Park
Webmaster  Alan B. Chamberlin